Погода в Котельниках

Россия / Московская область     55°39′35″N   37°51′47″E
темп.,
°C
ветер,
м/с
пор.,
м/с
влажн.,
%
обл.,
%
осадки,
мм/ч
давл.,
гПа
погр.,
м
9 мая, вс
вс900:00+8сз2598100 1.3 1002300
03:00+6ссз61292100 3.5 1004658
06:00+4сз61196100 1.3 1006725
09:00+3ссз61396100 3.6 1009857
12:00+4ссз61289100 0.7 10121022
15:00+10ссз61263100 1.3 10131899
18:00+10ссз6115492 0.1 10161951
21:00+7сз386329 0.1 1019259
10 мая, пн
пн1000:00+6ссз412652 0.0 1021376
03:00+4ссз410703 0.0 1024303
06:00+4ссз311630 0.0 1026344
09:00+9с47420 0.0 1027884
12:00+12с46340 0.0 10271481
15:00+14ссв46310 0.0 10271658
18:00+14ссв46380 0.0 10271364
21:00+9св37610 0.0 1028266
11 мая, вт
вт1100:00+7св38671 0.0 1028202
03:00+5св38715 0.0 1029190
06:00+6св310691 0.0 1029256
09:00+12св59530 0.0 1029604
12:00+17св57470 0.0 1027879
15:00+19всв56474 0.0 10261092
18:00+18всв58570 0.0 1026895
21:00+14всв4117931 0.0 1027336
12 мая, ср
ср1200:00+12вюв269258 0.0 1027186
03:00+11ююв119663 0.0 102717
06:00+11ссв129458 0.1 102776
09:00+14св368333 0.1 1025420
12:00+20в71263100 1.3 10221480
15:00+17в6137593 2.8 10211153
18:00+16вюв81574100 0.4 10201413
21:00+11ююв5118710 0.9 1022667
13 мая, чт
чт1300:00+9юв25896 0.0 1023186
03:00+8в258981 0.0 1023162
06:00+9в3992100 0.0 1021290
09:00+13вюв41089100 0.1 1020561
12:00+14юв4889100 0.6 1020730
15:00+17юв577645 1.6 1019997
18:00+18юв36735 0.4 1019849
21:00+14юв26891 0.4 1019132